Location: ???????
(52.3000°N, 54.4667°E)
Time: 22:43:49
(UTC+00:00)

PSLV R/B - Pass Details

Date: 24 January 2020
Orbit: 568 x 599 km, 98.2° (Epoch: 16 February)

Event Time Altitude Azimuth Distance (km) Brightness Sun altitude
Rises 13:47:12 0° 15° (NNE) 2,788 7.1 -8.2°
Reaches altitude 10° 13:49:21 10° 16° (NNE) 1,887 6.2 -8.6°
Maximum altitude 13:53:26 83° 103° (ESE) 585 3.9 -9.1°
Drops below altitude 10° 13:57:32 10° 194° (SSW) 1,886 7.0 -9.7°
Sets 13:59:41 0° 195° (SSW) 2,784 7.9 -10.0°
